Tracking 28790 objects as of 19-Apr-2024
HD Live streaming from Space Station
objects crossing your sky now

STARLINK-3353

Track STARLINK-3353 now!
10-day predictions
STARLINK-3353 is classified as:


NORAD ID: 50807
Int'l Code: 2022-001E
Perigee: 333.5 km
Apogee: 338.9 km
Inclination: 53.2 °
Period: 91.1 minutes
Semi major axis: 6707 km
RCS: Unknown
Launch date: January 6, 2022
Source: United States (US)
Launch site: AIR FORCE EASTERN TEST RANGE (AFETR)
Your satellite tracking list
Your tracking list is empty




NASA's NSSDC Master Catalog

Two Line Element Set (TLE):
1 50807U 22001E   24109.58334491  .00264965  00000-0  13282-2 0  9998
2 50807  53.2116 352.0693 0003995 181.3586 282.7979 15.80488430  6041
Source of the keplerian elements: AFSPC